Regional Weather Roundup
Issued by NWS

Home | Current Version | Previous Version | Graphics & Text | Print | Product List | Glossary On
Versions: 1 2 3 4 5 6 7 8 9 10 11 12 13 14 15 16 17 18 19 20 21 22 23 24 25 26 27 28 29 30 31 32 33 34 35 36 37 38 39 40 41 42 43 44 45 46 47 48 49 50
216
ASUS43 KTOP 170008
RWRKS

WEATHER ROUNDUP FOR KANSAS
NATIONAL WEATHER SERVICE GOODLAND KS
700 PM CDT MON OCT 16 2017

NOTE:  "FAIR" INDICATES FEW OR NO CLOUDS BELOW 12,000 FEET WITH NO
SIGNIFICANT WEATHER AND/OR OBSTRUCTIONS TO VISIBILITY.

KSZ001>006-013>018-027>032-041>047-170100-
NORTHWEST KANSAS

CITY           SKY/WX    TMP DP  RH WIND       PRES   REMARKS
GOODLAND       CLOUDY    68  35  29 S10       30.12R
6HR MIN TEMP:  68; 6HR MAX TEMP:  78;

HAYS           CLEAR     62  35  36 S9        30.16R
HILL CITY      CLOUDY    67  36  31 S9        30.12F
6HR MIN TEMP:  67; 6HR MAX TEMP:  78; 6HR PCP: TRACE;

RUSSELL        CLEAR     64  36  35 S12       30.15S
6HR MIN TEMP:  64; 6HR MAX TEMP:  75;

$$

KSZ061>065-074>080-084>089-170100-
SOUTHWEST KANSAS

CITY           SKY/WX    TMP DP  RH WIND       PRES   REMARKS
DODGE CITY     CLEAR     66  30  26 S12       30.18F
6HR MIN TEMP:  66; 6HR MAX TEMP:  74;

ELKHART          N/A     68  38  33 S7          N/A
GARDEN CITY    CLEAR     65  35  33 S12       30.16S
6HR MIN TEMP:  65; 6HR MAX TEMP:  75;

GREAT BEND     CLEAR     61  37  41 S10       30.18
LIBERAL        CLEAR     66  37  34 S13       30.19S
PRATT          CLEAR     65  33  29 S13       30.21S
6HR MIN TEMP:  65; 6HR MAX TEMP:  72;

$$

KSZ066>073-081>083-090>101-170100-
SOUTHEAST KANSAS

CITY           SKY/WX    TMP DP  RH WIND       PRES   REMARKS
CHANUTE        CLEAR     55  44  66 S7        30.28S
6HR MIN TEMP:  55; 6HR MAX TEMP:  68;

COFFEYVILLE    CLEAR     62  40  44 SW3       30.28S
6HR MIN TEMP:  61; 6HR MAX TEMP:  69;

HUTCHINSON     CLEAR     60  40  47 S10       30.21S
6HR MIN TEMP:  60; 6HR MAX TEMP:  73;

MEDICINE LODGE   N/A     64  36  35 S9        30.22S
NEWTON         CLEAR     60  40  47 S10       30.24F
PARSONS        CLEAR     56  45  66 CALM      30.29S
6HR MIN TEMP:  56; 6HR MAX TEMP:  68; 6HR PCP: TRACE;

WICHITA INTL   PTCLDY    60  41  49 S9        30.23F
6HR MIN TEMP:  60; 6HR MAX TEMP:  69;

WICHITA JABRA  CLEAR     59  40  49 S8        30.24F
6HR MIN TEMP:  59; 6HR MAX TEMP:  69;

WICHITA MCCONL CLEAR     60  38  43 S9        30.24F
WINFIELD       CLEAR     57  42  57 S7        30.27F
6HR MIN TEMP:  57; 6HR MAX TEMP:  68;

$$

KSZ007>012-019>026-033>040-048>060-102>105-170100-
NORTHEAST KANSAS

CITY           SKY/WX    TMP DP  RH WIND       PRES   REMARKS
CONCORDIA      CLEAR     62  40  44 S10       30.16S
6HR MIN TEMP:  62; 6HR MAX TEMP:  74;

EMPORIA        CLEAR     57  40  52 S7        30.24F
6HR MIN TEMP:  57; 6HR MAX TEMP:  70;

LAWRENCE       CLEAR     60  43  53 S7        30.23F
6HR MIN TEMP:  60; 6HR MAX TEMP:  70;

MANHATTAN      CLEAR     60  41  49 S5        30.20S
6HR MIN TEMP:  60; 6HR MAX TEMP:  74;

MARYSVILLE     CLEAR     63  41  45 S8        30.17S
OLATHE IND     CLEAR     56  42  59 S5        30.25F
6HR MIN TEMP:  55; 6HR MAX TEMP:  68;

OLATHE EXE     CLEAR     59  40  49 S6        30.25S
6HR MIN TEMP:  59; 6HR MAX TEMP:  67;

SALINA         CLEAR     63  43  48 S12       30.19F
6HR MIN TEMP:  63; 6HR MAX TEMP:  74; 6HR PCP: TRACE;

TOPEKA BILLARD CLEAR     64  41  42 S6        30.22S
6HR MIN TEMP:  64; 6HR MAX TEMP:  72;

TOPEKA FORBES  CLEAR     62  41  46 S7        30.22F
6HR MIN TEMP:  62; 6HR MAX TEMP:  73;

$$




USA.gov is the U.S. government's official web portal to all federal, state and local government web resources and services.